Location: Boitzum
(52.1496°N, 9.6943°E)
Time: 00:52:23
(UTC+00:00)

Cosmos 2074 Rocket - Pass Details

Date: 25 April 2026
Orbit: 967 x 984 km, 82.9° (Epoch: 19 May)

Event Time Altitude Azimuth Distance (km) Brightness Sun altitude
Rises 02:49:59 0° 354° (N) 3,706 7.5 -10.5°
Reaches altitude 10° 02:52:59 10° 6° (N) 2,754 7.0 -10.1°
Maximum altitude 02:58:13 27° 63° (ENE) 1,819 6.5 -9.5°
Drops below altitude 10° 03:03:24 10° 119° (ESE) 2,738 6.7 -8.9°
Sets 03:06:21 0° 131° (SE) 3,680 7.2 -8.5°
